International Virtual Aviation Organisation

Russian Federation and Kazakhstan MCD

 

Карточка аэропорта URMM

Внимание!
Информация на этой странице в стадии наполнения.
Если вы не увидели какой-то информации, или заметили неточность - пожалуйста сообщите нам!
Спасибо!
Команда RU-STAFF
Название аэропортаМинеральные Воды
Название аэропорта (англ.)Mineralnyye Vody
Превышение1047 ft. (319.1 m.)
Координаты44°13.608', 43°4.9799999999999'
Высота перехода900m
Эшелон переходаQFE>=704mm:FL060; QFE<704mm:FL070
Коды ответчика1050-1057
Зона ОрВДРостов-на-Дону РПИ (URRV)
Данные METARURMM 140800Z 09003MPS 9999 NSC 19/05 Q1027 R12/090070 NOSIG RMK QFE742/0989
Проноз погоды (TAF)URMM 140800Z 1409/1509 10003G08MPS 9999 SCT030 TX23/1411Z TN07/1502Z
NOTAMshow/hide NOTAM
AWOS   TABLE

Информация о ВПП

ВПП Длина ВПП (м.) Покрытие Курс ВПП Частота ILS
123900Бетон115111.7
303900Бетон295109.3

Диспетчерские позиции

Позывной Наименование органа УВД Частота
URMM_APPМинеральные Воды-Подход119.3
URMM_R_APPМинеральные Воды-Круг120.7
URMM_TWRМинеральные Воды-Старт128.0
URMM_GNDМинеральные Воды-Руление121.9



Спутниковое изображение